Home > Weather > Bergisch Gladbach > Past weeks

Flag for Germany Past Weather in Bergisch Gladbach, North Rhine-Westphalia, Germany — Yesterday and Last 2 Weeks

Now
50 °F

Partly sunny.


Feels Like: 47 °F
Forecast: 43 / 67 °F
Wind: 8 mph from North

Location: Koeln / Bonn

Current Time: May 24, 2016 at 11:59:15 AM

Latest Report: May 24, 2016 at 11:20 AM


Visibility: N/A

Pressure: 30.01 "Hg

Humidity: 88%

Dew Point: 46 °F

Location of Bergisch GladbachLocation

Past Weather in Bergisch Gladbach — Graph

°F

Bergisch Gladbach Temperature Yesterday

Maximum temperature yesterday: 59 °F (at 12:20 AM)
Minimum temperature yesterday: 50 °F (at 10:20 PM)
Average temperature yesterday: 54 °F

High & Low Weather Summary for the Past Weeks

 TemperatureHumidityPressure
High77 °F (May 9, 2:20 PM)100% (May 23, 3:50 PM)30.12 "Hg (May 23, 3:50 PM)
Low43 °F (May 15, 4:20 AM)29% (May 13, 6:20 PM)29.47 "Hg (May 12, 1:50 PM)
Average59 °F65%29.86 "Hg
* Reported May 9 10:20 AM — May 24 10:20 AM, Bergisch Gladbach, Weather by CustomWeather, © 2016

Note: Actual official high and low records may vary slightly from our data, if they occured in-between our weather recording intervals... More about our weather records

Advertising

Bergisch Gladbach Weather History for the Previous 24 Hours

Scroll right to see more
 ConditionsComfort  
Time TempWeatherWind HumidityBarometerVisibility
10:20 AM
Tue, May 24
50 °FPartly sunny.7 mph88%30.01 "HgN/A
9:50 AM50 °FOvercast.9 mph82%30.01 "HgN/A
9:20 AM50 °FLow clouds.9 mph88%30.01 "HgN/A
8:50 AM48 °FLow clouds.12 mph94%30.01 "HgN/A
8:20 AM48 °FPartly sunny.12 mph94%30.01 "HgN/A
7:50 AM48 °FPartly sunny.10 mph94%30.01 "HgN/A
7:20 AM48 °FDrizzle. Partly sunny.12 mph94%30.01 "HgN/A
6:50 AM48 °FDrizzle. Fog.10 mph100%30.01 "Hg3 mi
6:20 AM48 °FDrizzle. Fog.13 mph100%30.01 "Hg2 mi
5:50 AM48 °FDrizzle. Fog.13 mph100%30.01 "Hg3 mi
5:20 AM50 °FPassing clouds.10 mph94%29.98 "Hg4 mi
4:50 AM50 °FPassing clouds.12 mph94%29.98 "Hg4 mi
4:20 AM50 °FPassing clouds.14 mph94%29.98 "Hg4 mi
3:50 AM50 °FPassing clouds.12 mph94%29.98 "Hg4 mi
3:20 AM50 °FPassing clouds.13 mph100%29.98 "Hg3 mi
2:50 AM50 °FPassing clouds.12 mph100%29.98 "Hg3 mi
2:20 AM50 °FPassing clouds.12 mph94%29.98 "Hg6 mi
1:50 AM50 °FPassing clouds.10 mph94%29.98 "Hg4 mi
1:20 AM50 °FPassing clouds.13 mph94%29.98 "HgN/A
12:50 AM50 °FPassing clouds.14 mph94%29.98 "HgN/A
12:20 AM50 °FPassing clouds.14 mph100%29.98 "Hg4 mi
11:50 PM
Mon, May 23
50 °FPassing clouds.13 mph100%29.98 "Hg4 mi
11:20 PM50 °FPassing clouds.12 mph100%29.98 "Hg4 mi
10:50 PM50 °FPassing clouds.14 mph100%29.98 "Hg2 mi
10:20 PM50 °FDrizzle. Broken clouds.14 mph100%29.98 "Hg3 mi
9:50 PM52 °FDrizzle. Broken clouds.13 mph94%29.98 "Hg4 mi
9:20 PM52 °FDrizzle. Broken clouds.16 mph94%29.98 "Hg5 mi
8:50 PM52 °FDrizzle. Broken clouds.16 mph94%29.95 "Hg5 mi
8:20 PM52 °FDrizzle. Broken clouds.17 mph94%29.95 "Hg4 mi
7:50 PM52 °FDrizzle. Partly sunny.18 mph94%29.95 "Hg3 mi
7:20 PM54 °FDrizzle. Partly sunny.16 mph94%29.92 "Hg2 mi
6:50 PM54 °FDrizzle. Fog.17 mph94%29.92 "Hg2 mi
6:20 PM54 °FDrizzle. Fog.16 mph94%29.92 "Hg2 mi
5:50 PM54 °FDrizzle. Fog.14 mph94%29.92 "Hg2 mi
5:20 PM54 °FDrizzle. Fog.14 mph94%29.89 "Hg2 mi
4:50 PM54 °FDrizzle. Mostly cloudy.14 mph94%29.89 "Hg4 mi
4:20 PM54 °FDrizzle. Fog.16 mph94%29.89 "Hg2 mi
3:50 PM54 °FDrizzle. Fog.13 mph100%29.89 "Hg2 mi
3:20 PM54 °FDrizzle. Broken clouds.14 mph94%29.89 "Hg4 mi
2:50 PM54 °FDrizzle. Broken clouds.12 mph94%29.89 "Hg4 mi
2:20 PM54 °FDrizzle. Fog.10 mph94%29.89 "Hg2 mi
1:50 PM54 °FDrizzle. Fog.9 mph94%29.86 "Hg2 mi
1:20 PM54 °FDrizzle. Fog.10 mph88%29.86 "Hg3 mi
12:50 PM54 °FPartly sunny.14 mph82%29.86 "HgN/A
12:20 PM54 °FPartly sunny.15 mph82%29.86 "HgN/A
11:50 AM54 °FPartly sunny.14 mph82%29.86 "HgN/A
11:20 AM52 °FLight rain. Partly sunny.12 mph88%29.86 "HgN/A
Weather by CustomWeather, © 2016

See weather overviewHow to use our weather pages